Location: Byszew
(52.1813°N, 19.2693°E)
Time: 01:00:05
(UTC+00:00)

YAOGAN 1 - Pass Details

Date: 03 March 2021
Orbit: 618 x 620 km, 97.9° (Epoch: 11 April)

Event Time Altitude Azimuth Distance (km) Brightness Sun altitude
Rises 17:38:12 0° 177° (S) 2,887 5.9 -11.8°
Reaches altitude 10° 17:40:25 10° 182° (S) 1,986 5.1 -12.1°
Maximum altitude 17:44:39 53° 260° (W) 769 3.4 -12.8°
Drops below altitude 10° 17:48:55 10° 337° (NNW) 2,001 5.6 -13.4°
Sets 17:51:10 0° 343° (NNW) 2,913 6.4 -13.8°
